RH
38 43 47 49 54 55 52 51 49 57 56 64 77 86 85 89 92 93 98 96 94 91 86 94 92 89 91 88 92 89 97 94 95 97 97 92 87 84 83 79 88 87 87 93 94 96 91 63 64 62 54 51 44 52
42 46 46 48 56 59 59 65 69 71 57 54 69 80 71 82 87 87 92 94 98 95 85 87 87 86 86 93 98 97 97 95 98 97 92 92 90 89 90 95 85 89 84 84 79 71 57 51 48 46 45 46 43 47
48 48 46 47 56 62 61 61 66 74 71 59 62 78 76 75 86 92 95 94 97 96 88 82 75 77 75 73 83 94 89 80 87 90 89 86 85 81 87 85 74 66 65 67 58 52 50 47 48 49 43 39 37 39
49 50 47 45 49 58 62 62 67 71 72 70 69 66 67 77 79 74 75 84 86 87 89 73 66 66 64 70 79 82 83 64 58 62 70 75 81 68 67 64 64 61 55 55 55 52 50 52 54 53 47 41 39 35
50 49 48 47 45 46 49 57 64 68 72 75 79 79 73 72 73 73 76 76 79 95 96 83 76 75 71 74 75 70 64 58 57 60 65 71 75 72 67 62 59 58 58 63 63 57 57 50 50 54 51 45 44 37
48 49 49 50 48 47 46 45 49 60 68 70 72 74 78 77 75 81 80 74 77 86 87 92 83 80 69 58 53 56 64 74 72 71 67 65 69 77 76 70 65 63 63 65 64 64 65 63 62 62 60 54 47 39
44 44 46 48 49 51 51 47 43 45 51 58 64 68 68 69 68 68 74 73 72 75 81 80 88 91 83 69 59 63 75 82 84 85 82 77 74 71 66 64 62 61 63 67 70 69 70 74 71 68 62 56 53 42
39 40 40 42 44 46 46 47 45 40 44 45 48 53 60 63 63 66 66 67 72 73 78 80 82 82 84 73 75 76 84 78 72 71 65 64 64 66 66 62 66 70 73 75 77 78 71 65 65 62 62 60 56 43
39 38 37 36 37 38 39 42 42 40 33 36 37 47 55 52 47 49 55 64 70 77 78 75 73 82 79 83 82 83 73 65 59 66 74 73 67 67 67 69 72 72 71 68 70 66 66 75 70 70 68 69 64 49
36 34 34 34 33 33 32 33 35 40 45 38 37 46 49 54 50 54 64 62 65 73 74 77 72 77 82 89 87 79 67 59 65 74 86 90 79 67 71 75 76 72 71 70 72 72 68 74 79 75 80 83 75 60
36 32 29 26 25 25 25 25 26 28 33 46 52 53 54 49 51 60 64 59 74 88 89 89 90 88 87 82 81 74 57 56 80 86 88 91 88 80 83 76 72 69 67 67 71 73 71 68 75 79 74 78 80 68
32 31 28 24 23 22 22 23 23 24 27 30 40 57 73 56 57 66 67 58 68 84 84 83 78 73 78 73 64 63 65 76 83 81 82 84 84 80 76 75 71 70 65 61 60 73 70 65 64 61 60 68 83 85
28 30 31 29 25 23 23 23 24 24 24 33 47 63 69 74 69 71 85 85 86 86 86 85 77 71 71 81 86 83 84 85 79 84 82 79 82 76 72 73 70 68 66 64 60 59 71 82 77 70 72 62 52 75
30 30 31 28 29 29 29 27 25 24 28 43 50 54 62 73 73 84 87 84 74 69 67 66 72 71 75 86 92 94 86 86 86 83 75 80 82 70 69 70 71 71 66 63 59 56 60 68 83 86 80 83 64 64
27 26 27 35 39 36 30 22 21 25 39 49 48 51 60 67 74 82 87 86 83 80 77 71 72 82 87 92 94 91 91 90 81 75 80 83 88 77 73 74 74 72 64 60 57 54 57 61 68 90 87 78 73 67
28 28 31 38 35 34 32 27 30 37 47 48 44 42 42 48 62 69 79 84 83 83 79 85 89 90 92 93 94 92 88 84 82 89 96 96 94 85 79 77 74 68 63 60 57 55 55 58 62 68 93 93 84 73
33 31 36 33 32 28 28 35 46 47 46 39 36 37 40 43 55 65 68 74 79 77 81 84 98 95 87 94 95 95 97 95 95 94 95 92 87 84 80 77 75 71 66 63 59 56 58 58 62 63 70 87 98 96
40 36 35 35 31 29 38 43 45 47 44 36 38 34 42 50 54 58 61 67 72 78 83 90 88 90 89 82 89 91 94 94 92 97 93 90 88 85 80 79 80 74 69 67 61 59 58 57 61 65 68 69 75 90
50 42 40 43 40 37 40 48 46 46 42 38 35 37 43 45 46 49 56 67 71 76 83 85 92 96 97 96 93 94 95 95 97 95 97 93 88 85 82 83 80 78 74 71 66 62 59 55 55 59 65 72 76 75
60 53 50 51 50 48 48 46 47 48 46 39 37 36 37 38 44 49 53 57 62 68 75 81 81 86 96 98 98 98 96 96 98 97 95 96 94 88 82 84 84 81 77 74 71 68 63 56 55 56 59 63 72 81
71 67 64 66 61 57 52 49 48 45 44 45 41 38 35 36 42 44 44 48 54 58 61 67 72 78 86 91 89 88 89 89 91 94 98 98 97 88 88 89 92 86 83 80 75 72 67 58 55 55 55 57 59 68
79 79 81 80 76 73 68 56 52 52 49 48 43 40 42 44 39 35 33 36 41 43 46 48 50 55 58 60 63 66 68 71 75 81 87 92 97 96 96 97 96 95 92 86 80 74 73 67 60 56 55 56 57 58
88 87 87 88 84 79 70 71 66 57 55 54 50 48 46 43 36 32 35 38 39 40 41 45 48 47 48 49 51 52 51 48 48 52 58 71 88 97 99 98 98 98 96 93 87 83 80 74 67 62 60 57 57 60
94 96 91 86 86 86 81 82 72 65 59 59 56 48 44 42 36 37 36 41 38 37 38 40 39 36 31 30 41 46 52 50 58 61 61 66 72 80 86 91 96 98 98 98 96 93 90 83 74 67 63 58 57 58
99 93 89 86 85 88 89 86 79 70 60 61 58 53 48 43 47 46 42 43 41 41 39 35 33 32 30 29 34 37 43 49 54 59 64 74 86 88 90 89 90 98 98 98 98 96 93 88 81 73 66 60 57 58
96 87 88 80 83 86 85 83 79 67 63 61 58 54 52 56 55 51 44 42 41 42 43 41 33 31 32 32 34 35 40 44 47 59 64 78 93 99 98 98 98 98 98 98 97 95 90 87 82 75 69 64 61 60
90 86 87 84 86 83 83 79 66 63 60 57 59 62 63 65 60 50 46 45 44 45 47 41 34 27 26 28 29 31 34 40 48 59 70 78 93 98 99 98 98 98 98 98 97 94 89 85 81 77 72 67 66 64
86 84 89 88 88 86 84 80 76 71 64 57 59 65 65 63 58 51 49 46 46 47 46 41 34 27 29 32 30 30 34 42 54 65 70 74 86 97 98 98 98 98 98 98 96 94 92 88 86 85 82 79 75 71
87 88 90 94 93 93 90 89 86 79 66 59 63 65 65 61 57 56 53 50 48 47 47 46 42 35 34 35 34 34 39 45 58 69 74 77 83 90 97 98 97 97 98 97 95 94 92 90 90 88 85 83 82 79
85 85 93 95 96 96 91 86 82 77 70 62 60 62 64 64 63 62 58 54 51 49 48 48 45 39 35 35 36 37 41 48 57 67 75 79 83 87 90 94 93 92 89 87 88 88 87 88 88 87 82 78 77 72
89 88 94 97 97 92 91 87 81 77 70 66 65 66 67 68 65 63 59 54 52 53 52 49 46 41 38 37 35 37 43 46 53 64 73 78 80 83 82 86 88 89 85 86 86 83 80 76 75 75 75 72 66 61
95 96 98 98 97 96 92 80 79 79 74 70 69 70 71 72 69 63 58 55 53 50 47 46 44 42 42 37 34 39 44 48 51 56 65 75 81 86 86 88 91 89 91 93 93 90 88 85 83 84 83 80 75 68
98 99 98 98 98 98 98 98 94 87 78 75 76 76 77 77 75 66 63 61 57 50 45 44 43 45 44 41 39 41 44 48 51 55 56 57 59 63 69 72 73 76 77 77 76 75 75 75 75 75 74 73 71 70